Location: *
(37.5724°S, 58.0067°E)
Time: 08:04:27
(UTC+00:00)

Envisat - Pass Details

Date: 27 November 2022
Orbit: 763 x 765 km, 98.2° (Epoch: 07 February)

Event Time Altitude Azimuth Distance (km) Brightness Sun altitude
Rises 21:52:47 0° 72° (ENE) 3,237 6.4 -25.1°
Reaches altitude 10° 21:58:04 10° 119° (ESE) 2,325 6.3 -24.5°
Maximum altitude 21:58:10 10° 120° (ESE) 2,325 6.3 -24.5°
Drops below altitude 10° 21:58:16 10° 121° (ESE) 2,326 6.3 -24.5°
Sets 22:03:35 0° 167° (SSE) 3,266 7.4 -23.9°
